JI1UWB-13 Weather Reports


time (UTC)temp
F
wind
direction
speed
knots
gust
knots
rain 1hr
in
rain 24hr
in
rain mn
in
humidity
%
barometer
mb
20260504205518 57 309 0.9 3.5 0.00 0.02 0.00 40 1018.7
20260504204516 57 300 0.9 2.6 0.00 0.02 0.00 41 1018.4
20260504203519 56 359 0.9 3.5 0.00 0.03 0.00 42 1018.2
20260504202518 56 325 0.9 3.5 0.00 0.04 0.00 42 1018.2
20260504201537 56 38 0.9 2.6 0.00 0.04 0.00 42 1018.0
20260504200515 56 354 0.9 2.6 0.00 0.07 0.00 43 1017.6
20260504195518 56 298 0.9 2.6 0.00 0.07 0.00 42 1017.3
20260504194517 56 10 0.9 2.6 0.00 0.07 0.00 42 1017.1
20260504193519 56 14 0.9 2.6 0.00 0.08 0.00 42 1016.8
20260504192518 56 347 1.7 4.3 0.00 0.08 0.00 42 1016.5
20260504191517 56 345 1.7 3.5 0.00 0.08 0.00 43 1016.2
20260504190559 56 345 0.9 3.5 0.00 0.08 0.00 42 1016.0
20260504185517 56 2 0.9 5.2 0.00 0.08 0.00 42 1015.8
20260504184516 56 18 1.7 5.2 0.00 0.08 0.00 42 1015.6
20260504183519 56 308 1.7 6.1 0.00 0.08 0.00 43 1015.4
20260504182517 56 313 1.7 3.5 0.00 0.08 0.00 44 1015.4
20260504181517 56 3 0.9 3.5 0.00 0.08 0.00 44 1015.2
20260504180519 56 4 1.7 5.2 0.00 0.08 0.00 44 1015.0
20260504175518 56 338 1.7 5.2 0.00 0.08 0.00 44 1014.8
20260504174519 56 351 1.7 4.3 0.00 0.08 0.00 44 1014.4
20260504173517 56 348 1.7 3.5 0.00 0.08 0.00 43 1014.2
20260504172536 56 3 1.7 7.8 0.00 0.08 0.00 43 1013.9
20260504171538 56 358 1.7 4.3 0.00 0.08 0.00 43 1013.7
20260504170517 57 2 2.6 5.2 0.00 0.08 0.00 42 1013.6
20260504150516 60 352 1.7 7.8 0.00 0.08 0.00 40 1010.4
20260504140516 62 325 1.7 5.2 0.00 0.08 0.08 39 1008.9
20260504130516 64 2 1.7 6.1 0.00 0.11 0.08 41 1007.4
20260504110519 70 10 1.7 6.1 0.00 0.11 0.08 38 1003.6
20260504100518 73 355 1.7 4.3 0.00 0.11 0.08 36 1001.4
20260504081536 78 262 0.9 3.5 0.00 0.11 0.08 31 997.9
20260504080518 79 219 1.7 7.0 0.00 0.11 0.08 32 997.3
20260504050537 85 314 1.7 3.5 0.00 0.11 0.08 38 994.9
20260504045517 84 309 1.7 3.5 0.00 0.11 0.08 39 995.0
20260504044519 84 337 1.7 3.5 0.00 0.11 0.08 37 995.0
20260504043517 84 321 1.7 3.5 0.00 0.11 0.08 38 995.0
20260504042517 84 301 1.7 5.2 0.00 0.11 0.08 39 995.2
20260504041519 85 302 1.7 4.3 0.00 0.11 0.08 38 995.2
20260504040517 85 328 1.7 4.3 0.00 0.11 0.08 38 995.3
20260504035516 85 272 1.7 6.1 0.00 0.11 0.08 39 995.5
20260504034518 84 284 2.6 5.2 0.00 0.11 0.08 40 995.6
20260504033517 84 248 3.5 7.8 0.00 0.11 0.08 42 995.6
20260504032516 86 254 2.6 6.1 0.00 0.11 0.08 40 995.6
20260504031518 86 243 1.7 8.7 0.00 0.11 0.08 40 995.6
20260504030517 84 239 2.6 7.0 0.00 0.11 0.08 44 995.8
20260504025515 85 250 2.6 6.1 0.00 0.11 0.08 44 996.0
20260504024518 85 262 0.9 4.3 0.00 0.11 0.08 48 996.1
20260504023517 83 309 0.9 1.7 0.00 0.11 0.08 55 996.4
20260504022519 83 41 0.9 2.6 0.00 0.11 0.08 55 996.4
20260504021518 83 84 1.7 3.5 0.00 0.11 0.08 56 996.6
20260504020517 82 67 0.9 2.6 0.00 0.11 0.08 57 996.8
20260504015519 81 48 0.9 1.7 0.00 0.11 0.08 60 997.0
20260504014517 80 18 0.9 1.7 0.00 0.11 0.08 60 997.1
20260504013516 81 359 0.9 1.7 0.00 0.11 0.08 59 997.2
20260504012539 80 20 0.9 1.7 0.00 0.11 0.08 61 997.2
20260504011517 79 339 0.9 0.9 0.00 0.11 0.08 64 997.5
20260504010516 78 63 0.9 2.6 0.00 0.11 0.08 63 997.6
20260504005518 79 53 0.9 1.7 0.00 0.11 0.08 63 997.8
20260504004518 77 45 0.9 1.7 0.00 0.11 0.08 66 997.9
20260504003516 76 24 0.9 3.5 0.00 0.11 0.08 69 998.1
20260504002518 76 22 0.9 1.7 0.00 0.11 0.08 68 998.0
20260504001517 76 16 0.9 1.7 0.00 0.11 0.08 69 998.1
20260504000516 73 31 0.9 1.7 0.00 0.11 0.08 77 998.0
20260503235539 71 332 0.9 2.6 0.00 0.11 0.08 82 998.2
20260503234516 70 343 0.9 0.9 0.00 0.11 0.08 85 998.2
20260503233518 68 62 0.0 0.9 0.00 0.11 0.08 92 998.2
20260503232537 66 317 0.9 1.7 0.00 0.11 0.08 99 998.2
20260503231516 66 357 0.9 1.7 0.00 0.11 0.08 100 998.2
20260503230518 65 26 0.9 0.9 0.00 0.11 0.08 100 998.3
20260503225517 65 295 0.9 1.7 0.00 0.11 0.08 100 998.4
20260503224516 64 260 0.0 1.7 0.00 0.11 0.08 100 998.2
20260503223518 64 12 0.9 1.7 0.00 0.11 0.08 100 998.2
20260503222517 64 294 0.9 2.6 0.00 0.11 0.08 100 998.4
20260503221516 64 7 1.7 3.5 0.00 0.11 0.08 100 998.0
20260503220518 65 277 0.9 1.7 0.01 0.11 0.08 100 998.1
20260503215537 67 282 0.9 2.6 0.02 0.11 0.08 100 997.7
20260503214519 72 283 0.9 1.7 0.02 0.11 0.08 100 997.2
20260503213538 72 260 2.6 7.0 0.03 0.11 0.08 100 996.7
20260503212517 71 258 1.7 6.1 0.04 0.11 0.08 100 996.8
20260503211519 71 272 2.6 5.2 0.04 0.11 0.08 100 996.7
20260503210517 71 247 2.6 9.6 0.05 0.10 0.07 100 996.7